Regional Weather Roundup
Issued by NWS

Home | Current Version | Previous Version | Text Only | Print | Product List | Glossary On
Versions: 1 2 3 4 5 6 7 8 9 10 11 12 13 14 15 16 17 18 19 20 21 22 23 24 25 26 27 28 29 30 31 32 33 34 35 36 37 38 39 40 41 42 43 44 45 46 47 48 49 50
000
ASUS43 KDTX 210201
RWRMI
MICHIGAN HOURLY REGIONAL WEATHER ROUNDUP
NATIONAL WEATHER SERVICE DETROIT/PONTIAC MI
1000 PM EDT SUN APR 20 2014

NOTE: "FAIR" INDICATES FEW OR NO CLOUDS BELOW 12,000 FEET WITH NO
SIGNIFICANT WEATHER AND/OR OBSTRUCTION TO VISIBILITY.

MIZ047>049-052>055-059>063-066>070-074>076-081>083-210300-
SOUTHEAST LOWER MICHIGAN

CITY           SKY/WX    TMP DP  RH WIND       PRES   REMARKS
ADRIAN         MOCLDY    56  39  53 SE6       30.13R
ALMA           MOCLDY    60  38  43 S3        30.09S
ANN ARBOR      MOCLDY    57  35  43 S3        30.13R
BAD AXE        MOCLDY    59  37  44 S5        30.10S
CARO           MOCLDY    58  32  37 CALM      30.09S
DETROIT CITY   PTCLDY    60  39  45 S8        30.13S
DETROIT        MOCLDY    55  36  48 S6        30.14S
FLINT          PTCLDY    61  24  24 S5        30.10S
GROSSE ILE     PTCLDY    48  43  81 CALM      30.12S
HILLSDALE      PTCLDY    58  30  34 CALM      30.12S
HOWELL         PTCLDY    61  23  23 S3        30.11R

CITY           SKY/WX    TMP DP  RH WIND       PRES   REMARKS
JACKSON        PTCLDY    58  30  34 CALM      30.12R
LAMBERTVILLE   PTCLDY    54  39  58 CALM      30.13F
LANSING        CLEAR     60  35  39 CALM      30.11S
LAPEER         FAIR      53  38  57 S3        30.11S
MASON          CLEAR     58  32  36 CALM      30.11S
MONROE         PTCLDY    52  37  58 CALM      30.12F
MT. CLEMENS    CLOUDY    51  38  63 S9        30.12S
PONTIAC        CLOUDY    62  31  31 S6        30.12R
PORT HOPE        N/A     54  40  59 CALM      30.08S
PORT HURON     MOCLDY    57  41  54 S6        30.13S
TRI CITIES     MOCLDY    66  31  27 S5        30.09S
TROY           PTCLDY    63  34  34 S6        30.13S
SAGINAW HB     MOCLDY    63  32  31 S5        30.09R
YPSILANTI      PTCLDY    57  33  40 CALM      30.14R
$$
MIZ043>046-050>051-056>058-064>065-071>073-077>080-210300-
SOUTHWEST LOWER MICHIGAN

CITY           SKY/WX    TMP DP  RH WIND       PRES   REMARKS
BATTLE CREEK   CLEAR     58  33  39 S5        30.11S
BENTON HARBOR  CLEAR     60  38  43 SE6       30.08S
BIG RAPIDS     CLOUDY    61  39  43 CALM      30.06F
COLDWATER      PTCLDY    53  34  48 CALM      30.11S
FREMONT        CLOUDY    62  34  34 CALM      30.06S
HOLLAND        PTCLDY    61  40  45 S5        30.07F
GRAND RAPIDS   PTCLDY    60  36  40 S5        30.09S
IONIA          FAIR      61  32  33 S8        30.08F
KALAMAZOO      CLEAR     61  29  29 S6        30.11S
LUDINGTON      CLOUDY    62  36  37 CALM      30.05S
MARSHALL       PTCLDY    56  33  41 CALM      30.11R
MOUNT PLEASANT CLOUDY    62  40  45 CALM      30.08S
MUSKEGON       MOCLDY    63  36  36 SE7       30.05F
SOUTH HAVEN    PTCLDY    60  35  39 SE3       30.07F
$$
MIZ016>042-210300-
NORTHERN LOWER MICHIGAN

CITY           SKY/WX    TMP DP  RH WIND       PRES   REMARKS
ALPENA         CLOUDY    46  38  73 CALM      30.05S
BEAVER ISLAND  CLOUDY    39  36  88 CALM      30.06S
BELLAIRE       DRIZZLE   53  45  74 CALM      30.06R
CADILLAC       CLOUDY    55  48  75 CALM      30.07F
CHARLEVOIX     CLOUDY    45  37  74 CALM      30.09R
FRANKFORT      CLOUDY    56  40  55 CALM      30.05S
GAYLORD        CLOUDY    54  40  59 SW3       30.06S
GRAYLING       CLOUDY    56  39  54 CALM      30.08S
HARBOR SPRINGS CLOUDY    44  38  79 W3        30.06R
HOUGHTON LAKE  LGT RAIN  55  42  61 NW5       30.09R
MANISTEE       CLOUDY    57  45  62 CALM      30.06F
OSCODA         CLOUDY    56  30  36 S5        30.07R
PELLSTON       CLOUDY    46  42  86 CALM      30.08R
ROGERS CITY    CLOUDY    38  36  91 NW5       30.08R WCI  35
TRAVERSE CITY  CLOUDY    58  42  55 CALM      30.04S
$$
MIZ007>008-015-210300-
EASTERN UPPER MICHIGAN

CITY           SKY/WX    TMP DP  RH WIND       PRES   REMARKS
KINROSS        CLOUDY    37  37 100 SE5       30.07S WCI  34
MACKINAC ISLAN LGT RAIN  40  40 100 CALM      30.07S
NEWBERRY       PTCLDY    35  34  94 S3        30.04S
S. S. MARIE    CLOUDY    38  37  97 E3        30.08S FOG
$$
MIZ004>006-011>014-085-210300-
CENTRAL UPPER MICHIGAN

CITY           SKY/WX    TMP DP  RH WIND       PRES   REMARKS
MANISTIQUE     CLOUDY    37  35  91 CALM      30.04S
ESCANABA       CLOUDY    39  36  87 NE5       30.03R
MENOMINEE      CLOUDY    50  45  81 S3        30.01S
$$
MIZ001>003-009>011-084-210300-
WESTERN UPPER MICHIGAN

CITY           SKY/WX    TMP DP  RH WIND       PRES   REMARKS
IRON MOUNTAIN  MOCLDY    49  47  93 CALM      30.00R
HOUGHTON       CLEAR     40  33  76 CALM      30.01R
COPPER HARBOR    N/A     34  30  85 CALM      30.00S
IRONWOOD       CLEAR     43  30  61 CALM      29.99R
$$

ABBREVIATIONS USED IN REMARKS
   TC - TEMPERATURE IN CELSIUS
  WCI - WIND CHILL INDEX
   HX - HEAT INDEX
  VSB - VISIBILITY




USA.gov is the U.S. government's official web portal to all federal, state and local government web resources and services.